Погода в Свитавах

Чехия     49°45′25″N   16°28′28″E
темп.,
°C
ветер,
м/с
пор.,
м/с
влажн.,
%
обл.,
%
осадки,
мм/ч
давл.,
гПа
погр.,
м
21 января, чт
чт2101:00+1ююв61298100 0.0 1008474
04:00+1юв51298100 0.0 1007503
07:00+1юв51298100 0.0 1007493
10:00+1ююв13100100 0.0 1007133
13:00+1вюв4710098 0.0 1007291
16:000ю359798 0.0 1006252
19:00−2юв349784 0.0 100795
22:00−2юв249881 0.0 1006138
22 января, пт
пт2201:00−1вюв279890 0.0 1004234
04:00+2юв41398100 0.0 1000521
07:00+1юв3899100 0.0 1000291
10:00+1ююз3995100 0.0 1000315
13:00+1ю4795100 0.0 999214
16:00+1ююв3593100 0.1 999104
19:00−1вюв229382 0.1 99847
22:000юв349468 0.0 996102
23 января, сб
сб2301:00+3вюв5139984 0.0 994352
04:00+3вюв41499100 0.0 991459
07:00+4ююв51599100 0.4 990504
10:00+2ююз51289100 0.3 991678
13:00+2юз599092 0.3 994494
16:000зсз5991100 0.0 996432
19:00−1сз3694100 0.1 997448
22:00−1сз4694100 0.0 998420
24 января, вс
вс2401:00−2сз1297100 0.4 998139
04:00−2сз2497100 0.5 997243
07:00−2сз2397100 0.8 998173
10:00−1зсз3591100 0.2 998348
13:00+1зсз3681100 0.2 999760
16:00−1зсз4796100 0.4 1000487
19:00−2з498794 0.6 1001437
22:00−3з39861 0.0 1001358
25 января, пн
пн2501:00−4зсз388614 0.0 1001283
04:00−4зсз1487100 0.0 1001208
07:00−4зсз3983100 0.0 1002361
10:00−3сз5107794 0.0 1002659
13:00−2зсз687463 0.0 10031068
16:00−2зсз91389100 0.3 1003947
19:00−2зсз8148893 0.3 1005731
22:00−3зсз10159375 1.0 1007830